• In Uzbekistan
  • List of Countries
  • For 7 days
  • Water Temperature
  • Satellite Maps
  • Weather Map
  • Weather Widgets
  • user-avatar
    Login

    Hourly Weather Kalkan

    Today, 18 September, Tuesday

    Time Temperature Precipitation Wind Pressure Humidity
    00:00 +27°C° 0 mm 3 mps 757 mmHg 48%
    01:00 +27°C° 0 mm 3 mps 757 mmHg 48%
    02:00 +27°C° 0 mm 3 mps 757 mmHg 47%
    03:00 +26°C° 0 mm 3 mps 757 mmHg 49%
    04:00 +26°C° 0 mm 3 mps 757 mmHg 51%
    05:00 +25°C° 0 mm 3 mps 757 mmHg 52%
    06:00 +27°C° 0 mm 3 mps 757 mmHg 49%
    07:00 +28°C° 0 mm 2 mps 757 mmHg 46%
    08:00 +30°C° 0 mm 2 mps 757 mmHg 42%
    09:00 +31°C° 0 mm 2 mps 757 mmHg 38%
    10:00 +32°C° 0 mm 2 mps 757 mmHg 34%
    11:00 +34°C° 0 mm 2 mps 757 mmHg 30%
    12:00 +34°C° 0 mm 2 mps 757 mmHg 30%
    13:00 +35°C° 0 mm 3 mps 757 mmHg 30%
    14:00 +35°C° 0 mm 3 mps 757 mmHg 30%
    15:00 +34°C° 0 mm 3 mps 756 mmHg 33%
    16:00 +34°C° 0 mm 3 mps 756 mmHg 35%
    17:00 +33°C° 0 mm 3 mps 756 mmHg 38%
    18:00 +30°C° 0 mm 3 mps 756 mmHg 41%
    19:00 +29°C° 0 mm 3 mps 757 mmHg 45%
    20:00 +27°C° 0 mm 2 mps 757 mmHg 49%
    21:00 +27°C° 0 mm 2 mps 757 mmHg 47%
    22:00 +27°C° 0 mm 3 mps 757 mmHg 45%
    23:00 +27°C° 0 mm 3 mps 757 mmHg 43%

    Tomorrow, 19 September, Wednesday

    Time Temperature Precipitation Wind Pressure Humidity
    00:00 +27°C° 0 mm 3 mps 757 mmHg 43%
    01:00 +27°C° 0 mm 3 mps 757 mmHg 43%
    02:00 +26°C° 0 mm 3 mps 757 mmHg 43%
    03:00 +26°C° 0 mm 3 mps 757 mmHg 44%
    04:00 +26°C° 0 mm 2 mps 757 mmHg 45%
    05:00 +25°C° 0 mm 2 mps 757 mmHg 46%
    06:00 +27°C° 0 mm 2 mps 757 mmHg 43%
    07:00 +29°C° 0 mm 2 mps 757 mmHg 40%
    08:00 +31°C° 0 mm 1 mps 757 mmHg 37%
    09:00 +32°C° 0 mm 1 mps 757 mmHg 34%
    10:00 +34°C° 0 mm 2 mps 757 mmHg 31%
    11:00 +35°C° 0 mm 2 mps 757 mmHg 29%
    12:00 +35°C° 0 mm 2 mps 757 mmHg 29%
    13:00 +35°C° 0 mm 2 mps 757 mmHg 29%
    14:00 +36°C° 0 mm 3 mps 757 mmHg 30%
    15:00 +35°C° 0 mm 3 mps 756 mmHg 32%
    16:00 +34°C° 0 mm 3 mps 756 mmHg 35%
    17:00 +32°C° 0 mm 2 mps 756 mmHg 37%
    18:00 +31°C° 0 mm 2 mps 756 mmHg 42%
    19:00 +29°C° 0 mm 2 mps 757 mmHg 46%
    20:00 +27°C° 0 mm 2 mps 757 mmHg 50%
    21:00 +27°C° 0 mm 3 mps 757 mmHg 48%
    22:00 +27°C° 0 mm 3 mps 757 mmHg 46%
    23:00 +27°C° 0 mm 3 mps 757 mmHg 44%

    Day after tomorrow, 20 September, Thursday

    Time Temperature Precipitation Wind Pressure Humidity
    00:00 +27°C° 0 mm 3 mps 757 mmHg 44%
    01:00 +26°C° 0 mm 3 mps 757 mmHg 43%
    02:00 +26°C° 0 mm 3 mps 757 mmHg 42%
    03:00 +26°C° 0 mm 3 mps 756 mmHg 42%
    04:00 +26°C° 0 mm 2 mps 756 mmHg 41%
    05:00 +25°C° 0 mm 2 mps 756 mmHg 41%
    06:00 +27°C° 0 mm 2 mps 756 mmHg 37%
    07:00 +29°C° 0 mm 2 mps 757 mmHg 33%
    08:00 +31°C° 0 mm 1 mps 757 mmHg 30%
    09:00 +32°C° 0 mm 2 mps 757 mmHg 28%
    10:00 +34°C° 0 mm 2 mps 757 mmHg 27%
    11:00 +35°C° 0 mm 2 mps 757 mmHg 26%
    12:00 +35°C° 0 mm 3 mps 757 mmHg 27%
    13:00 +35°C° 0 mm 3 mps 757 mmHg 28%
    14:00 +36°C° 0 mm 3 mps 756 mmHg 29%
    15:00 +35°C° 0 mm 3 mps 756 mmHg 32%
    16:00 +34°C° 0 mm 3 mps 756 mmHg 36%
    17:00 +33°C° 0 mm 3 mps 756 mmHg 40%
    18:00 +30°C° 0 mm 3 mps 756 mmHg 45%
    19:00 +29°C° 0 mm 3 mps 757 mmHg 50%
    20:00 +27°C° 0 mm 3 mps 757 mmHg 55%
    21:00 +27°C° 0 mm 3 mps 757 mmHg 54%
    22:00 +27°C° 0 mm 3 mps 757 mmHg 52%
    23:00 +27°C° 0 mm 3 mps 757 mmHg 51%

    21 September, Friday

    Time Temperature Precipitation Wind Pressure Humidity
    00:00 +26°C° 0 mm 3 mps 757 mmHg 49%
    01:00 +26°C° 0 mm 3 mps 757 mmHg 48%
    02:00 +26°C° 0 mm 3 mps 756 mmHg 46%
    03:00 +25°C° 0 mm 3 mps 756 mmHg 46%
    04:00 +25°C° 0 mm 2 mps 756 mmHg 46%
    05:00 +25°C° 0 mm 2 mps 756 mmHg 45%
    06:00 +27°C° 0 mm 2 mps 757 mmHg 41%
    07:00 +29°C° 0 mm 2 mps 757 mmHg 37%
    08:00 +31°C° 0 mm 1 mps 757 mmHg 33%
    09:00 +32°C° 0 mm 2 mps 757 mmHg 31%
    10:00 +34°C° 0 mm 2 mps 757 mmHg 29%
    11:00 +35°C° 0 mm 2 mps 757 mmHg 27%
    12:00 +35°C° 0 mm 3 mps 757 mmHg 28%
    13:00 +35°C° 0 mm 3 mps 757 mmHg 29%
    14:00 +35°C° 0 mm 3 mps 757 mmHg 30%
    15:00 +35°C° 0 mm 3 mps 756 mmHg 34%
    16:00 +34°C° 0 mm 3 mps 756 mmHg 38%
    17:00 +33°C° 0 mm 3 mps 756 mmHg 42%
    18:00 +30°C° 0 mm 3 mps 757 mmHg 47%
    19:00 +29°C° 0 mm 3 mps 757 mmHg 53%
    20:00 +27°C° 0 mm 3 mps 757 mmHg 58%
    21:00 +27°C° 0 mm 3 mps 757 mmHg 58%
    22:00 +26°C° 0 mm 3 mps 758 mmHg 57%
    23:00 +26°C° 0 mm 3 mps 758 mmHg 56%

    22 September, Saturday

    Time Temperature Precipitation Wind Pressure Humidity
    00:00 +26°C° 0 mm 3 mps 758 mmHg 55%
    01:00 +25°C° 0 mm 3 mps 757 mmHg 54%
    02:00 +25°C° 0 mm 3 mps 757 mmHg 53%
    03:00 +25°C° 0 mm 3 mps 757 mmHg 52%
    04:00 +24°C° 0 mm 3 mps 757 mmHg 50%
    05:00 +24°C° 0 mm 3 mps 757 mmHg 49%
    06:00 +26°C° 0 mm 3 mps 757 mmHg 44%
    07:00 +28°C° 0 mm 2 mps 757 mmHg 39%
    08:00 +30°C° 0 mm 2 mps 757 mmHg 34%
    09:00 +32°C° 0 mm 2 mps 757 mmHg 32%
    10:00 +34°C° 0 mm 3 mps 757 mmHg 30%
    11:00 +35°C° 0 mm 3 mps 757 mmHg 27%
    12:00 +35°C° 0 mm 3 mps 757 mmHg 29%
    13:00 +35°C° 0 mm 3 mps 757 mmHg 31%
    14:00 +35°C° 0 mm 4 mps 756 mmHg 32%
    15:00 +34°C° 0 mm 4 mps 756 mmHg 37%
    16:00 +33°C° 0 mm 4 mps 756 mmHg 42%
    17:00 +32°C° 0 mm 4 mps 756 mmHg 47%
    18:00 +30°C° 0 mm 4 mps 757 mmHg 55%
    19:00 +28°C° 0 mm 3 mps 757 mmHg 62%
    20:00 +27°C° 0 mm 3 mps 758 mmHg 69%
    21:00 +26°C° 0 mm 3 mps 758 mmHg 67%
    22:00 +26°C° 0 mm 4 mps 758 mmHg 66%
    23:00 +26°C° 0 mm 4 mps 757 mmHg 64%

    23 September, Sunday

    Time Temperature Precipitation Wind Pressure Humidity
    00:00 +25°C° 0 mm 4 mps 757 mmHg 64%
    01:00 +25°C° 0 mm 3 mps 757 mmHg 63%
    02:00 +25°C° 0 mm 3 mps 757 mmHg 62%
    03:00 +25°C° 0 mm 3 mps 757 mmHg 61%
    04:00 +24°C° 0 mm 3 mps 757 mmHg 60%
    05:00 +24°C° 0 mm 3 mps 757 mmHg 59%
    06:00 +26°C° 0 mm 3 mps 757 mmHg 53%
    07:00 +28°C° 0 mm 3 mps 757 mmHg 48%
    08:00 +30°C° 0 mm 2 mps 757 mmHg 43%
    09:00 +31°C° 0 mm 3 mps 757 mmHg 41%
    10:00 +33°C° 0 mm 3 mps 757 mmHg 39%
    11:00 +34°C° 0 mm 3 mps 757 mmHg 37%
    12:00 +34°C° 0 mm 3 mps 756 mmHg 38%
    13:00 +35°C° 0 mm 4 mps 756 mmHg 40%
    14:00 +35°C° 0 mm 4 mps 756 mmHg 41%
    15:00 +34°C° 0 mm 4 mps 756 mmHg 45%
    16:00 +33°C° 0 mm 4 mps 755 mmHg 50%
    17:00 +31°C° 0 mm 3 mps 755 mmHg 54%
    18:00 +30°C° 0 mm 3 mps 756 mmHg 60%
    19:00 +28°C° 0 mm 3 mps 756 mmHg 67%
    20:00 +27°C° 0 mm 3 mps 756 mmHg 73%
    21:00 +27°C° 0 mm 3 mps 756 mmHg 70%
    22:00 +27°C° 0 mm 3 mps 756 mmHg 67%
    23:00 +27°C° 0 mm 3 mps 756 mmHg 64%
    Show more